COSMOS 2433 (720)

Last updated on Oct. 24, 2020, 5:55 a.m. UTC

1 32275U 07052A   20297.45471753 -.00000089  00000-0  10000-3 0  9991
2 32275  66.0154  24.6644 0004247 223.0585  83.9145  2.13104086101132
UTC
Height (km)
Latitude
Longitude
Inclination
Orbital Period
UTC large
Height (km)
Speed (km/s)
/
Latitude / Longitude
Inclination (degrees)
Orbital Period (minutes)
Azimuth
Elevation
Range (km)
Doppler Factor
iOS Compass Heading
iOS Angle

Next 30 passes for location: Hong Kong

Rise time Rise Azimuth (degrees) Set time Set Azimuth (degrees) Duration Max altitude (degrees)

No matching passes for this satellites